This is the latest recevied weather packets stored in our database for station/object K4GSL. If no packets are shown the sender has not sent any weather packets the latest 10 day(s).
| Time | Temp. | Humidity | Pressure | Rain* | Wind** | Luminosity | Snow |
|---|---|---|---|---|---|---|---|
| 1777855353 | 28.89° C | 46% | 1011.7 hPa | 0 mm | - | 158 W/m² | - |
| 1777855049 | 28.89° C | 48% | 1011.8 hPa | 0 mm | - | 95 W/m² | - |
| 1777854747 | 28.89° C | 47% | 1011.7 hPa | 0 mm | - | 104 W/m² | - |
| 1777854443 | 28.89° C | 49% | 1011.5 hPa | 0 mm | - | 105 W/m² | - |
| 1777854140 | 28.89° C | 48% | 1011.7 hPa | 0 mm | - | 98 W/m² | - |
| 1777853838 | 28.89° C | 47% | 1011.6 hPa | 0 mm | - | 95 W/m² | - |
| 1777853535 | 28.89° C | 46% | 1011.6 hPa | 0 mm | - | 98 W/m² | - |
| 1777853231 | 28.89° C | 46% | 1011.8 hPa | 0 mm | - | 107 W/m² | - |
| 1777852928 | 28.89° C | 45% | 1011.7 hPa | 0 mm | - | 118 W/m² | - |
| 1777852627 | 28.89° C | 45% | 1011.8 hPa | 0 mm | - | 124 W/m² | - |
| 1777852323 | 28.89° C | 45% | 1011.7 hPa | 0 mm | - | 129 W/m² | - |
| 1777852021 | 28.89° C | 46% | 1011.6 hPa | 0 mm | - | 132 W/m² | - |
| 1777851719 | 28.89° C | 46% | 1011.7 hPa | 0 mm | - | 133 W/m² | - |
| 1777851415 | 28.89° C | 45% | 1011.7 hPa | 0 mm | - | 129 W/m² | - |
| 1777851111 | 28.89° C | 45% | 1011.7 hPa | 0 mm | - | 130 W/m² | - |
| 1777850808 | 29.44° C | 44% | 1011.9 hPa | 0 mm | - | 140 W/m² | - |
| 1777850506 | 29.44° C | 44% | 1011.8 hPa | 0 mm | - | 158 W/m² | - |
| 1777850204 | 30.56° C | 42% | 1011.8 hPa | 0 mm | - | 310 W/m² | - |
| 1777849900 | 30.56° C | 43% | 1012 hPa | 0 mm | - | 371 W/m² | - |
| 1777849597 | 30.56° C | 42% | 1011.7 hPa | 0 mm | - | 195 W/m² | - |
| 1777849294 | 30.56° C | 43% | 1011.8 hPa | 0 mm | - | 528 W/m² | - |
| 1777848991 | 30.56° C | 42% | 1012.2 hPa | 0 mm | - | 331 W/m² | - |
| 1777848691 | 30.56° C | 42% | 1012.3 hPa | 0 mm | - | 788 W/m² | - |
| 1777848389 | 30° C | 42% | 1012.3 hPa | 0 mm | - | 806 W/m² | - |
| 1777848086 | 30° C | 44% | 1012.4 hPa | 0 mm | - | 768 W/m² | - |
* Rain latest hour (hover to see other rain measurements)
** Current wind speed in m/s (hover to see current wind gust speed)